[[{"header":{"parameterUnit":"m.s-1","parameterCategory":1,"la1":30.2991,"la2":30.254,"lo1":-89.0895,"lo2":-89.0444,"dy":0.0017,"dx":0.0017,"nx":28,"ny":28,"refTime":"2026-03-05T09:00:00:Z","depth":0,"parameterNumber":2,"parameterNumberName":"U-component_of_WINDS"},"data":[0,0,0,0,0,0,0,0,0,0,0,0,0,0,0,0,0,0,0,0,0,0,0,0,0,0,0,0,0,0,0,0,0,0,0,0,0,0,0,0,0,0,0,0,0,0,0,0,0,0,0,0,0,0,0,0,0,0,-3.341,-3.3411,0,-3.346,-3.346,-3.3461,-3.3435,-3.3434,-3.3432,-3.3431,-3.3483,-3.3485,-3.3488,0,0,0,0,0,0,0,0,0,0,0,0,0,-3.3294,-3.3297,-3.341,-3.3411,-3.3411,-3.346,-3.346,-3.3461,-3.3435,-3.3434,-3.3432,-3.343,-3.3482,-3.3485,-3.3488,0,0,0,0,0,0,0,0,0,0,0,0,0,-3.3344,-3.3297,-3.341,-3.3404,-3.3404,-3.346,-3.3461,-3.3461,-3.3436,-3.3434,-3.3432,-3.343,-3.3481,-3.3484,-3.3488,-3.3552,0,0,-3.35,-3.3502,0,0,0,0,0,0,0,0,-3.3342,-3.3349,-3.3404,-3.3405,-3.3405,-3.3439,-3.3439,-3.3492,-3.3436,-3.3424,-3.3431,-3.3429,-3.347,-3.3474,-3.3488,-3.3555,-3.3557,-3.3501,-3.3503,-3.3505,-3.3506,0,0,0,0,0,0,0,-3.3338,-3.3346,-3.343,-3.3405,-3.3406,-3.34,-3.3405,-3.3449,-3.3457,-3.3425,-3.3423,-3.3429,-3.3469,-3.3484,-3.3489,-3.3558,-3.3501,-3.3504,-3.3506,-3.3508,-3.3682,-3.3684,0,0,0,0,0,0,-3.3335,-3.3344,-3.3428,-3.3431,-3.3368,-3.3403,-3.3409,-3.343,-3.3457,-3.3459,-3.3431,-3.3428,-3.3479,-3.3485,-3.3491,-3.3569,-3.3505,-3.3508,-3.3511,-3.368,-3.3682,-3.3685,0,0,0,0,0,0,-3.3333,-3.3343,-3.3426,-3.3387,-3.3397,-3.3408,-3.3432,-3.3432,-3.3447,-3.3461,-3.3463,-3.3444,-3.3477,-3.3485,-3.3538,-3.357,-3.351,-3.3514,-3.3677,-3.368,-3.3683,-3.3724,0,0,0,0,0,0,-3.3329,-3.3342,-3.3366,-3.3388,-3.3399,-3.3472,-3.3434,-3.3435,-3.3454,-3.345,-3.3475,-3.3477,-3.3476,-3.3532,-3.3542,-3.3574,-3.3517,-3.3674,-3.3678,-3.3682,-3.372,-3.3729,-3.3736,0,0,0,0,0,-3.3325,-3.3375,-3.3367,-3.3377,-3.3429,-3.3474,-3.348,-3.3479,-3.3457,-3.3481,-3.3491,-3.3476,-3.3565,-3.3538,-3.3548,-3.3583,-3.3672,-3.3677,-3.3682,-3.3717,-3.3727,-3.3736,0,0,0,0,0,0,-3.3356,-3.3378,-3.3369,-3.3427,-3.3449,-3.3469,-3.35,-3.349,-3.3518,-3.3514,-3.3511,-3.3517,-3.3571,-3.3582,-3.3551,-3.3647,-3.3615,-3.3623,-3.3638,-3.3648,-3.3656,-3.3652,-3.352,0,0,0,0,0,-3.337,-3.3403,-3.3421,-3.347,-3.3482,-3.3489,-3.3508,-3.3506,-3.3528,-3.3537,-3.355,-3.3572,-3.3606,-3.3627,-3.3659,-3.3722,-3.3728,-3.3751,-3.3759,-3.3766,-3.3772,-3.3808,-3.3819,-3.3701,-3.3701,-3.3701,0,0,-3.3398,-3.3414,-3.3435,-3.3477,-3.3493,-3.3529,-3.3497,-3.3535,-3.3562,-3.3542,-3.3593,-3.3604,-3.3629,-3.3687,-3.3714,-3.3698,-3.3806,-3.3772,-3.3777,-3.378,-3.3814,-3.3826,-3.3835,-3.3705,-3.3704,-3.3704,0,0,-3.3468,-3.3483,-3.3527,-3.3545,-3.357,-3.3575,-3.3586,-3.3608,-3.3614,-3.3665,-3.3652,-3.3684,-3.3741,-3.376,-3.3777,-3.3856,-3.3844,-3.3867,-3.3908,-3.3943,-3.3953,-3.3961,-3.399,-3.4001,-3.3873,-3.3873,-3.3873,0,-3.35,-3.3553,-3.3551,-3.3591,-3.361,-3.3595,-3.364,-3.3657,-3.3692,-3.3706,-3.3688,-3.376,-3.3776,-3.384,-3.3859,-3.3873,-3.3886,-3.3864,-3.3951,-3.396,-3.3967,-3.3995,-3.4006,-3.3876,-3.3876,-3.3875,-3.3875,0,-3.3591,-3.3628,-3.3661,-3.3695,-3.3718,-3.3761,-3.3766,-3.379,-3.3786,-3.3793,-3.3846,-3.3865,-3.39,-3.3915,-3.3911,-3.3979,-3.3969,-3.3951,-3.3919,-3.3981,-3.4007,-3.4018,-3.388,-3.3879,-3.3878,-3.3877,0,0,-3.368,-3.3715,-3.3727,-3.3743,-3.3771,-3.38,-3.3842,-3.3877,-3.3898,-3.3923,-3.3959,-3.4009,-3.3994,-3.4013,-3.4012,-3.4043,-3.4106,-3.4022,-3.4022,-3.4037,-3.4183,-3.4197,-3.4209,-3.4099,-3.4101,-3.4102,-3.4182,0,-3.3753,-3.3827,-3.3827,-3.3896,-3.3931,-3.3918,-3.3956,-3.3977,-3.3986,-3.4017,-3.4027,-3.4063,-3.4039,-3.4051,-3.4081,-3.4092,-3.4136,-3.4086,-3.4133,-3.4135,-3.4127,-3.4222,-3.4236,-3.431,-3.4192,-3.4194,-3.4195,0,-3.3846,-3.3875,-3.3947,-3.3972,-3.3987,-3.402,-3.4053,-3.4083,-3.4109,-3.4113,-3.4136,-3.413,-3.4175,-3.4142,-3.4204,-3.4171,-3.419,-3.4199,-3.4202,-3.4206,-3.4168,-3.423,-3.4333,-3.4344,-3.4211,-3.421,-3.4208,0,-3.3905,-3.3962,-3.4013,-3.4027,-3.4057,-3.4081,-3.4094,-3.4118,-3.4139,-3.4169,-3.4183,-3.4217,-3.4236,-3.4263,-3.4268,-3.4243,-3.4331,-3.4297,-3.4336,-3.4336,-3.4355,-3.4353,-3.4463,-3.4367,-3.4367,-3.4367,-3.4366,0,-3.3985,-3.403,-3.4039,-3.4071,-3.4121,-3.4123,-3.4173,-3.4184,-3.4206,-3.424,-3.4231,-3.4264,-3.4267,-3.4301,-3.4305,-3.4357,-3.4365,-3.437,-3.4371,-3.4371,-3.4371,-3.4384,-3.4379,-3.437,-3.4369,-3.4368,-3.4368,0,-3.4059,-3.4067,-3.4122,-3.4146,-3.4154,-3.419,-3.4211,-3.4242,-3.425,-3.4294,-3.4304,-3.4317,-3.4357,-3.4364,-3.4411,-3.4413,-3.4475,-3.4471,-3.4467,-3.4466,-3.4505,-3.4501,-3.4627,-3.4644,-3.4536,-3.4537,-3.4538,0,-3.411,-3.4144,-3.4173,-3.4195,-3.421,-3.4246,-3.4269,-3.4272,-3.4296,-3.4329,-3.4356,-3.4394,-3.4425,-3.449,-3.4504,-3.454,-3.4536,-3.4578,-3.4542,-3.4542,-3.4538,-3.4536,-3.454,-3.4585,-3.4586,-3.4587,-3.4587,0,-3.4199,-3.4202,-3.4235,-3.427,-3.4297,-3.4324,-3.435,-3.4369,-3.4376,-3.4404,-3.4445,-3.4469,-3.4517,-3.4556,-3.4593,-3.4608,-3.46,-3.4599,-3.461,-3.4611,-3.4608,-3.4611,-3.4486,-3.4596,-3.4595,-3.4594,-3.4594,-3.4594,-3.4263,-3.4294,-3.432,-3.4357,-3.4377,-3.4402,-3.4433,-3.4446,-3.4479,-3.4519,-3.4519,-3.4564,-3.4591,-3.4639,-3.4656,-3.4692,-3.4679,-3.4694,-3.4699,-3.4702,-3.4707,-3.4602,-3.4699,-3.4698,-3.4698,-3.4698,-3.4698,0,-3.4353,-3.4369,-3.4404,-3.4441,-3.4471,-3.4461,-3.449,-3.4516,-3.4555,-3.4581,-3.4612,-3.466,-3.4698,-3.4716,-3.4755,-3.478,-3.4777,-3.479,-3.4788,-3.4792,-3.4716,-3.4703,-3.4792,-3.4792,-3.4792,-3.4792,-3.4792,-3.4792,-3.4403,-3.4455,-3.4461,-3.4524,-3.454,-3.4584,-3.4602,-3.4625,-3.4646,-3.4699,-3.4731,-3.4743,-3.4766,-3.4806,-3.4842,-3.4846,-3.4861,-3.4876,-3.4879,-3.4807,-3.4797,-3.4788,-3.4776,-3.4879,-3.4879,-3.4952,-3.4953,-3.4953]},{"header":{"parameterUnit":"m.s-1","parameterCategory":1,"la1":30.2991,"la2":30.254,"lo1":-89.0895,"lo2":-89.0444,"dy":0.0017,"dx":0.0017,"nx":28,"ny":28,"refTime":"2026-03-05T09:00:00:Z","depth":0,"parameterNumber":3,"parameterNumberName":"V-component_of_WINDS"},"data":[0,0,0,0,0,0,0,0,0,0,0,0,0,0,0,0,0,0,0,0,0,0,0,0,0,0,0,0,0,0,0,0,0,0,0,0,0,0,0,0,0,0,0,0,0,0,0,0,0,0,0,0,0,0,0,0,0,0,1.8726,1.8726,0,1.8755,1.8755,1.8755,1.8746,1.8746,1.8745,1.8745,1.8773,1.8774,1.8776,0,0,0,0,0,0,0,0,0,0,0,0,0,1.8664,1.8665,1.8726,1.8726,1.8727,1.8755,1.8755,1.8755,1.8746,1.8746,1.8745,1.8744,1.8773,1.8774,1.8776,0,0,0,0,0,0,0,0,0,0,0,0,0,1.8691,1.8665,1.8726,1.8726,1.8726,1.8755,1.8755,1.8755,1.8747,1.8746,1.8745,1.8744,1.8772,1.8774,1.8776,1.8806,0,0,1.8782,1.8783,0,0,0,0,0,0,0,0,1.869,1.8694,1.8725,1.8726,1.8726,1.8746,1.8744,1.8773,1.8747,1.8739,1.8745,1.8744,1.8765,1.8767,1.8775,1.8808,1.8809,1.8782,1.8784,1.8784,1.8785,0,0,0,0,0,0,0,1.8688,1.8692,1.8737,1.8726,1.8726,1.8724,1.8727,1.8749,1.8756,1.8739,1.8739,1.8742,1.8765,1.8773,1.8775,1.8809,1.8782,1.8784,1.8785,1.8786,1.887,1.8871,0,0,0,0,0,0,1.8686,1.8691,1.8736,1.8738,1.8705,1.8726,1.8729,1.8741,1.8756,1.8758,1.8743,1.8742,1.877,1.8773,1.8776,1.8814,1.8784,1.8786,1.8787,1.8869,1.887,1.8872,0,0,0,0,0,0,1.8684,1.869,1.8735,1.8714,1.872,1.8728,1.8741,1.8742,1.875,1.8759,1.876,1.875,1.8769,1.8773,1.8799,1.8814,1.8787,1.8789,1.8868,1.887,1.8871,1.8888,0,0,0,0,0,0,1.8683,1.869,1.8701,1.8715,1.8721,1.8758,1.8742,1.8743,1.8753,1.8752,1.8766,1.8767,1.8769,1.8796,1.8801,1.8817,1.879,1.8867,1.8869,1.8871,1.8886,1.889,1.8893,0,0,0,0,0,1.8681,1.8704,1.8702,1.8707,1.8736,1.8759,1.8762,1.8764,1.8754,1.8766,1.8772,1.8767,1.8812,1.8799,1.8805,1.8821,1.8866,1.8868,1.887,1.8885,1.8889,1.8893,0,0,0,0,0,0,1.8691,1.8706,1.8703,1.8732,1.8744,1.8757,1.8772,1.8769,1.8784,1.8782,1.8783,1.8786,1.8813,1.882,1.8805,1.8852,1.8837,1.8841,1.8846,1.8851,1.8854,1.8852,1.8792,0,0,0,0,0,1.8697,1.8715,1.8727,1.8751,1.8757,1.8764,1.8774,1.8774,1.8787,1.8792,1.88,1.8812,1.8829,1.884,1.8857,1.8887,1.8891,1.8901,1.8905,1.8908,1.8911,1.8928,1.8933,1.8879,1.8879,1.8879,0,0,1.8709,1.8719,1.873,1.8753,1.8763,1.8781,1.8768,1.8788,1.8801,1.8795,1.882,1.8826,1.884,1.8869,1.8882,1.8875,1.8927,1.8911,1.8913,1.8914,1.8931,1.8936,1.8941,1.8881,1.8881,1.888,0,0,1.8741,1.875,1.8772,1.8782,1.8797,1.8801,1.8806,1.882,1.8824,1.885,1.8846,1.8862,1.8891,1.8902,1.8911,1.8948,1.8943,1.8953,1.8972,1.8989,1.8993,1.8997,1.9011,1.9016,1.8956,1.8956,1.8956,0,1.8754,1.8781,1.8783,1.8804,1.8814,1.881,1.8832,1.8842,1.8861,1.8869,1.8861,1.8898,1.8907,1.8939,1.8948,1.8955,1.8962,1.8951,1.8992,1.8996,1.9,1.9013,1.9018,1.8957,1.8957,1.8957,1.8957,0,1.8797,1.8816,1.8832,1.8851,1.8864,1.8885,1.8891,1.8903,1.8903,1.8908,1.8935,1.8945,1.8964,1.8972,1.8971,1.9004,1.8999,1.8992,1.8978,1.9006,1.9018,1.9023,1.8959,1.8958,1.8958,1.8958,0,0,1.8835,1.8856,1.8862,1.8871,1.8888,1.8903,1.8925,1.8944,1.8955,1.8968,1.8987,1.9012,1.9006,1.9017,1.9017,1.9033,1.9062,1.9024,1.9024,1.9031,1.9099,1.9105,1.9111,1.906,1.9061,1.9061,1.9099,0,1.8868,1.8906,1.8909,1.8943,1.8962,1.8958,1.8977,1.899,1.8996,1.9012,1.9018,1.9037,1.9027,1.9034,1.9048,1.9055,1.9076,1.9053,1.9077,1.9078,1.9074,1.9117,1.9123,1.9157,1.9103,1.9104,1.9105,0,1.8911,1.8927,1.8964,1.8979,1.8987,1.9004,1.9022,1.9038,1.9052,1.9056,1.9068,1.9067,1.909,1.9075,1.9106,1.9091,1.9101,1.9106,1.9107,1.911,1.9093,1.9121,1.9168,1.9174,1.9112,1.9112,1.9111,0,1.8936,1.8967,1.8993,1.9001,1.9019,1.9032,1.904,1.9053,1.9065,1.9081,1.9089,1.9107,1.9117,1.9131,1.9136,1.9124,1.9167,1.9153,1.9171,1.9171,1.918,1.9179,1.923,1.9186,1.9186,1.9186,1.9186,0,1.8973,1.8995,1.9004,1.902,1.9046,1.905,1.9075,1.9082,1.9095,1.9112,1.911,1.9127,1.9132,1.9149,1.9153,1.9179,1.9183,1.9187,1.9187,1.9187,1.9187,1.9193,1.9191,1.9187,1.9187,1.9187,1.9187,0,1.9005,1.9012,1.904,1.9056,1.906,1.9078,1.9092,1.9107,1.9113,1.9136,1.9141,1.9151,1.9172,1.9177,1.9202,1.9204,1.9235,1.9233,1.923,1.923,1.9249,1.9247,1.9306,1.9314,1.9264,1.9265,1.9265,0,1.9028,1.9045,1.9063,1.9075,1.9084,1.9103,1.9116,1.912,1.9133,1.9152,1.9165,1.9186,1.9203,1.9236,1.9245,1.9264,1.9263,1.9282,1.9266,1.9265,1.9264,1.9263,1.9265,1.9285,1.9286,1.9286,1.9287,0,1.9068,1.9071,1.9089,1.9108,1.9123,1.9139,1.9153,1.9163,1.917,1.9185,1.9206,1.9219,1.9245,1.9266,1.9286,1.9294,1.9292,1.9292,1.9297,1.9297,1.9295,1.9297,1.9239,1.929,1.929,1.929,1.929,1.9289,1.9097,1.9112,1.9128,1.9148,1.916,1.9174,1.919,1.9199,1.9217,1.9239,1.924,1.9264,1.9279,1.9305,1.9315,1.9334,1.9328,1.9335,1.9337,1.9339,1.9341,1.9292,1.9337,1.9337,1.9337,1.9337,1.9337,0,1.9137,1.9148,1.9166,1.9188,1.9204,1.9201,1.9217,1.9231,1.9252,1.9266,1.9283,1.9309,1.9329,1.934,1.9361,1.9374,1.9373,1.9379,1.9378,1.938,1.9345,1.9338,1.9379,1.9379,1.9379,1.9379,1.9379,1.9379,1.9161,1.9187,1.9192,1.9225,1.9235,1.9259,1.9269,1.9282,1.9294,1.9322,1.934,1.9347,1.9361,1.9382,1.9401,1.9404,1.9412,1.9418,1.942,1.9387,1.9383,1.9379,1.9373,1.942,1.942,1.9454,1.9455,1.9455]}]]